This is the latest recevied weather packets stored in our database for station/object E25WOP-13. If no packets are shown the sender has not sent any weather packets the latest 10 day(s).
| Time | Temp. | Humidity | Pressure | Rain* | Wind** | Luminosity | Snow |
|---|---|---|---|---|---|---|---|
| 1777717933 | -17.78° C | - | 1003.9 hPa | 0 mm | - | - | - |
| 1777717333 | -17.78° C | - | 1003.8 hPa | 0 mm | - | - | - |
| 1777716733 | -17.78° C | - | 1003.8 hPa | 0 mm | - | - | - |
| 1777716133 | -17.78° C | - | 1003.9 hPa | 0 mm | - | - | - |
| 1777715533 | -17.78° C | - | 1003.9 hPa | 0 mm | - | - | - |
| 1777714933 | -17.78° C | - | 1003.8 hPa | 0 mm | - | - | - |
| 1777714333 | -17.78° C | - | 1004 hPa | 0 mm | - | - | - |
| 1777713732 | 33.33° C | 65% | 1004 hPa | 0 mm | - | 166 W/m² | - |
| 1777713132 | 33.33° C | 61% | 1003.9 hPa | 0 mm | - | 194 W/m² | - |
| 1777712533 | 33.33° C | 65% | 1003.8 hPa | 0 mm | - | 225 W/m² | - |
| 1777711932 | 33.33° C | 62% | 1004 hPa | 0 mm | - | 246 W/m² | - |
| 1777711332 | 33.33° C | 65% | 1004.4 hPa | 0 mm | - | 267 W/m² | - |
| 1777710732 | 33.33° C | 64% | 1004.3 hPa | 0 mm | - | 295 W/m² | - |
| 1777710132 | 33.33° C | 66% | 1004.5 hPa | 0 mm | - | 315 W/m² | - |
| 1777709532 | 33.33° C | 66% | 1004.5 hPa | 0 mm | - | 350 W/m² | - |
| 1777708932 | 32.78° C | 67% | 1004.7 hPa | 0 mm | - | 368 W/m² | - |
| 1777708332 | 33.33° C | 69% | 1005 hPa | 0 mm | - | 406 W/m² | - |
| 1777707732 | 33.33° C | 67% | 1005.2 hPa | 0 mm | - | 436 W/m² | - |
| 1777707132 | 33.33° C | 68% | 1005.2 hPa | 0 mm | - | 482 W/m² | - |
| 1777706532 | 33.33° C | 68% | 1005.3 hPa | 0 mm | - | 488 W/m² | - |
| 1777705932 | 33.33° C | 67% | 1005.6 hPa | 0 mm | - | 499 W/m² | - |
| 1777705332 | 33.33° C | 68% | 1005.8 hPa | 0 mm | - | 710 W/m² | - |
| 1777704732 | 33.89° C | 66% | 1006 hPa | 0 mm | - | 1135 W/m² | - |
| 1777704132 | 33.89° C | 64% | 1006.2 hPa | 0 mm | - | 1139 W/m² | - |
| 1777703532 | 33.33° C | 65% | 1006.3 hPa | 0 mm | - | 918 W/m² | - |
* Rain latest hour (hover to see other rain measurements)
** Current wind speed in m/s (hover to see current wind gust speed)